Regional Weather Roundup
Issued by NWS Jackson, KY

Home | Current Version | Previous Version | Text Only | Print | Product List | Glossary Off
Versions: 1 2 3 4 5 6 7 8 9 10 11 12 13 14 15 16 17 18 19 20 21 22 23 24 25 26 27 28 29 30 31 32 33 34 35 36 37 38 39 40 41 42 43 44 45 46 47 48 49 50

000
ASUS43 KJKL 212310
RWRJKL

EAST KENTUCKY HOURLY WEATHER ROUNDUP
NATIONAL WEATHER SERVICE JACKSON KY
700 PM EDT SUN SEP 21 2014

NOTE: "FAIR" INDICATES FEW OR NO CLOUDS BELOW 12,000 FEET WITH
NO SIGNIFICANT WEATHER AND/OR OBSTRUCTIONS TO VISIBILITY.

* THESE REPORTS ARE NOT UNDER NWS QUALITY CONTROL AND MAY NOT
  REPORT WEATHER SUCH AS PRECIPITATION AND FOG.

KYZ079-080-083-085-087-088-110-112-115-119-120-220000
...EASTERN KENTUCKY...

CITY           SKY/WX    TMP DP  RH WIND       PRES   REMARKS
JACKSON        CLEAR     73  54  51 NW8G21    29.89R
LONDON         PTCLDY    77  59  53 NW10      29.91R
SOMERSET*      CLEAR     75  54  46 NW8G17    29.93R
MONTICELLO*    PTCLDY    79  61  53 NW9       29.94R
WILLIAMSBURG*  PTCLDY    75  66  73 CALM      29.91R
MIDDLESBORO*   MOCLDY    76  65  67 CALM      29.90R
HARLAN APT*    PTCLDY    72  64  78 MISG      29.91R
HAZARD APT*    PTCLDY    72  66  83 W9        29.89R
BLACK MTN*       N/A    N/A N/A N/A S2          N/A
PIKEVILLE APT* PTCLDY    72  64  78 SW3       29.87R
BIG SANDY*     PTCLDY    72  64  77 NW5       29.86R
MOREHEAD APT*  CLEAR     73  46  38 VRB7G14   29.91R
$$

KYZ035-036-041-042-044-050-067-078-099-220000
...CENTRAL KENTUCKY...

CITY           SKY/WX    TMP DP  RH WIND       PRES   REMARKS
MT STERLING*   CLEAR     72  48  43 NW8G16    29.93R
FLEMING/MASON* CLEAR     72  46  40 W15       29.90R
DANVILLE*      CLEAR     73  45  35 NW9       29.94R
RICHMOND*      CLEAR     73  45  35 NW12      29.91R
LEXINGTON      CLEAR     74  48  39 NW15G23   29.93R
FRANKFORT      CLEAR     73  47  39 NW6       29.92R
$$

KYZ091>093-OHZ055-061-077-WVZ005-015-034-035-042-220000
...SOUTHERN OHIO/WEST VIRGINIA...

CITY           SKY/WX    TMP DP  RH WIND       PRES   REMARKS
COVINGTON      PTCLDY    70  47  43 NW22G28   29.91R
COLUMBUS       PTCLDY    70  45  40 NW24G33   29.85R
DAYTON         MOCLDY    66  49  54 NW18G28   29.93R
WILMINGTON     CLEAR     67  46  47 NW22G29   29.89R
HUNTINGTON     CLEAR     73  44  35 W9G17     29.83R
CHARLESTON     PTCLDY    72  64  76 SW8       29.81R
PINEVILLE*     HVY RAIN  71  69  94 MISG      29.91R VSB 3/4
BECKLEY        LGT RAIN  64  59  83 NW12G24   29.88R
BLUEFIELD      PTCLDY    68  62  81 W9        29.92R
$$

VAZ002-007-008-TNZ017-027-036-066-071-220000
...SOUTHWEST VIRGINIA/EAST TENNESSEE...

CITY           SKY/WX    TMP DP  RH WIND       PRES   REMARKS
WISE*          CLOUDY    70  64  83 SW8       29.95S
JONESVILLE*    MOCLDY    73  70  88 SW8       29.92R
ABINGDON*      CLOUDY    71  68  90 W10       29.93R
BRISTOL        MOCLDY    70  66  87 SW7       29.92R
KNOXVILLE      CLOUDY    73  70  90 S6        29.92R
OAK RIDGE      MOCLDY    75  69  81 S5        29.93R
CROSSVILLE     CLOUDY    73  65  75 NW7       29.97S
NASHVILLE      PTCLDY    83  62  49 NW14G21   29.93R
$$

...KEY TO REMARKS...
VSB - VISIBILITY IN MILES
WCI - WIND CHILL INDEX
HX  - HEAT INDEX

$$


USA.gov is the U.S. government's official web portal to all federal, state and local government web resources and services.